www.pogodaiklimat.ru

Погода и климат >> Архив погоды >> Доминиканская Республика >> Лас Америкас


ПОГОДА в Лас Америкас

  • Прогноз погоды в Лас Америкас
  • Монитор погоды в Лас Америкас

АРХИВ ПОГОДЫ в Лас Америкас

Время (UTC), дата Ветер
(напр.,м/с)
 
Видим.   Явления Облачность Т
(С)
Тd
(С)
f
(%)
Тe
(С)
Тes
(С)
Комфортность P
(гПа)
Po
(гПа)
Тmin
(С)
Tmax
(С)
R
(мм)
R24
(мм)
S
(см)
18 16.01 ЮВ 4 16 км {туман} 3/3 700 м
[Cu med, cong]
+29.6 +19.6 55 +36 +41 очень
душно
1016.6 1017.0 +19.4 +30.5
21 16.01 Ю 3 16 км 8/5 660 м
[Cu med, cong Ac trans Cs]
+29.0 +20.5 60 +36 +36 очень
душно
1015.9 1016.0
00 17.01 В 2 16 км 4/3 600 м
[Cu med, cong Ac trans]
+24.5 +21.8 85 +31 +31 очень
душно
1017.3 1017.0 +19.4 +30.5
03 17.01 СВ 3 16 км 8/4 540 м
[Cu med, cong]
+22.6 +20.3 87 +29 +29 очень
душно
1018.8 1019.0
06 17.01 С 2 16 км 8/8 570 м
[Sc]
+20.3 +18.6 90 +24 +24 комфорт 1017.6 1018.0 +19.4 +30.5
09 17.01 С 2 16 км 5/5 540 м
[Sc]
+19.5 +17.6 89 +22 +22 комфорт 1017.1 1017.0
12 17.01 С 2 16 км 3/3 500 м
[Cu med, cong]
+19.8 +18.0 89 +23 +24 комфорт 1018.3 1018.0 +19.5 +30.5
15 17.01 В 4 16 км 6/4 600 м
[Cu med, cong Ac trans]
+27.7 +23.0 76 +37 +41 очень
душно
1019.5 1020.0
18 17.01 Ю 4 16 км 5/4 600 м
[Cu med, cong Ac trans]
+29.0 +20.6 61 +36 +40 очень
душно
1016.6 1017.0 +19.5 +30.5
21 17.01 Ю 3 16 км 8/5 540 м
[Cu med, cong Ac As]
+28.6 +20.6 62 +35 +36 очень
душно
1016.2 1016.0
00 18.01 В 3 7000 м слаб. дождь 9/8 480 м
[Cu Sc Ac As]
+22.6 +21.4 93 +30 +30 очень
душно
1017.8 1018.0 +18.6 +30.5 8
03 18.01 С 2 16 км {дождь} 9/8 480 м
[Cu Sc Ac As]
+22.2 +21.2 94 +29 +29 очень
душно
1018.5 1019.0 0.8
06 18.01 СВ 2 16 км {дождь} 6/5 480 м
[Sc Ac As]
+21.6 +20.4 93 +27 +27 душно 1017.1 1017.0 +18.6 +30.5
09 18.01 С 2 16 км 8/6 480 м
[Cu Sc Ac As]
+20.7 +19.5 93 +26 +26 душно 1015.6 1016.0
12 18.01 С 2 16 км 9/5 480 м
[Cu Sc Ac As]
+1.0 +19.8 100 -3 -3 1017.0 1017.0 +20.7 +30.5
15 18.01 В 2 16 км 5/4 600 м
[Cu med, cong Ac As]
+27.0 +21.5 72 +34 +40 очень
душно
1018.2 1018.0
18 18.01 Ю 3 16 км 6/5 600 м
[Cb cap Ac As]
+29.4 +20.8 60 +37 +41 очень
душно
1016.3 1016.0 +20.7 +30.3
21 18.01 ЮВ 4 16 км 8/8 540 м
[Cb cap]
+28.0 +21.3 67 +35 +36 очень
душно
1015.3 1015.0
00 19.01 В 3 16 км 9/8 480 м
[Cb cap Ac As]
+23.0 +20.5 86 +30 +30 очень
душно
1016.8 1017.0 +20.7 +30.3
03 19.01 В 2 16 км 8/8 480 м
[Cb cap]
+22.0 +20.7 92 +28 +28 душно 1017.0 1017.0
06 19.01 С 2 16 км 6/6 480 м
[Cu Sc]
+21.2 +20.0 93 +26 +26 душно 1017.2 1017.0 +20.7 +30.3
09 19.01 С 2 16 км 8/6 480 м
[Cu Sc Ac As]
+20.8 +19.8 94 +26 +26 душно 1015.5 1016.0
12 19.01 СВ 2 16 км 8/3 480 м
[Cu med, cong Ac trans]
+21.4 +20.3 93 +27 +27 душно 1017.0 1017.0 +20.3 +30.3
15 19.01 ЮВ 4 16 км 4/4 600 м
[Cu med, cong]
+28.0 +22.0 70 +36 +41 очень
душно
1018.3 1018.0
18 19.01 ЮВ 2 16 км 6/6 600 м
[Cu med, cong]
+28.5 +23.6 75 +39 +44 очень
душно
1016.2 1016.0 +21.4 +30.0
21 19.01 Ю 4 16 км 4/4 600 м
[Cu med, cong]
+27.6 +23.6 79 +38 +38 очень
душно
1014.9 1015.0
00 20.01 ЮВ 3 16 км 3/3 540 м
[Cu med, cong]
+24.8 +22.3 86 +32 +32 очень
душно
1016.2 1016.0 +20.3 +30.0
03 20.01 СВ 2 16 км 3/3 540 м
[Cu med, cong]
+23.2 +21.8 92 +31 +31 очень
душно
1017.9 1018.0
06 20.01 СВ 2 16 км 3/3 480 м
[Cu med, cong]
+22.2 +21.2 94 +29 +29 очень
душно
1016.4 1016.0 +20.3 +30.0
09 20.01 С 2 16 км 3/3 480 м
[Cu med, cong]
+20.8 +19.9 95 +26 +26 душно 1015.3 1015.0
12 20.01 штиль 0 16 км 1/1 480 м
[Cu hum]
+19.0 +17.9 93 +20 +22 1016.7 1017.0 +18.7 +29.6
15 20.01 В 5 16 км 3/3 600 м
[Cu med, cong]
+27.6 +20.9 67 +35 +39 очень
душно
1018.6 1019.0
18 20.01 ЮВ 5 16 км 3/3 600 м
[Cu med, cong]
+30.0 +21.1 59 +38 +42 очень
душно
1017.0 1017.0 +19.1 +30.0
21 20.01 ЮВ 3 16 км 3/3 600 м
[Cu med, cong]
+28.2 +20.1 61 +34 +35 очень
душно
1015.4 1015.0
00 21.01 ЮВ 2 16 км 3/3 540 м
[Cu med, cong]
+25.2 +22.1 83 +33 +33 очень
душно
1016.8 1017.0 +19.1 +30.0
03 21.01 СВ 2 16 км 3/3 480 м
[Cu med, cong]
+22.4 +20.9 91 +29 +29 очень
душно
1018.1 1018.0
06 21.01 СВ 2 16 км 6/3 480 м
[Cu med, cong Ac As]
+20.6 +19.3 92 +25 +25 комфорт 1017.5 1018.0 +19.1 +30.0
09 21.01 СВ 2 16 км 1/1 450 м
[Cu med, cong]
+19.0 +17.8 93 +21 +21 комфорт 1016.7 1017.0
12 21.01 штиль 0 16 км 1/1 480 м
[Cu med, cong]
+19.5 +18.3 93 +22 +23 комфорт 1018.4 1018.0 +18.6 +30.0
15 21.01 В 2 16 км 3/3 600 м
[Cu med, cong]
+28.0 +22.0 70 +36 +44 очень
душно
1019.7 1020.0
18 21.01 ЮЗ 5 16 км 4/4 660 м
[Cu med, cong]
+29.3 +21.8 64 +38 +41 очень
душно
1017.4 1017.0 +18.6 +30.2
21 21.01 Ю 3 16 км 3/3 600 м
[Cu med, cong]
+28.4 +21.7 67 +36 +37 очень
душно
1016.0 1016.0
00 22.01 ЮВ 2 16 км 3/3 540 м
[Cu med, cong]
+24.4 +21.7 85 +31 +31 очень
душно
1017.4 1017.0 +18.6 +30.2
03 22.01 СВ 2 16 км 4/4 540 м
[Cu med, cong]
+22.4 +20.9 91 +29 +29 очень
душно
1018.8 1019.0
06 22.01 СВ 2 16 км 4/4 540 м
[Cu med, cong]
+20.4 +19.4 94 +25 +25 комфорт 1018.6 1019.0 +18.6 +30.2
09 22.01 С 2 16 км 3/3 480 м
[Cu med, cong]
+19.8 +19.0 95 +23 +23 комфорт 1017.9 1018.0
12 22.01 С 3 16 км 3/3 500 м
[Cu med, cong Ac trans]
+20.2 +19.6 96 +24 +25 комфорт 1020.1 1020.0 +19.5 +30.2
15 22.01 СВ 5 16 км 5/4 600 м
[Cu med, cong Ac trans]
+27.8 +21.6 69 +36 +39 очень
душно
1021.1 1021.0
18 22.01 ЮВ 4 16 км 8/6 600 м
[Cu med, cong Ac As]
+28.2 +21.3 66 +36 +38 очень
душно
1018.6 1019.0 +19.5 +30.6
21 22.01 СВ 7 8000 м осадки на расстоянии 6/4 540 м
[Cu Sc Ac As]
+27.6 +20.2 64 +34 +34 очень
душно
1018.7 1019.0 0.1
00 23.01 СВ 3 16 км {дождь} 6/4 540 м
[Cu Sc Ac As]
+24.6 +20.9 80 +31 +31 очень
душно
1020.5 1021.0 +19.5 +30.7
03 23.01 СВ 3 16 км 6/3 480 м
[Cu Sc Ac As]
+23.5 +21.2 87 +30 +30 очень
душно
1021.1 1021.0
06 23.01 С 2 16 км 4/3 480 м
[Sc Ac As]
+21.6 +19.5 88 +19.5 +30.7
09 23.01 2 16 км 3/3 480 м
[Cu med, cong Ac As]
+20.0 +18.3 90 +24 +24 комфорт 1018.9 1019.0

 

Местоположение метеостанции Лас Америкас (Доминиканская Республика): широта 18.43 долгота -69.66 высота над уровнем моря 18 м.

В архиве по умолчанию представлена погода в Лас Америкас за последнюю неделю. Архивные данные за месяц целиком и за предыдущие месяцы, начиная с января 2011 года, Вы можете получить, выбрав интересующий диапазон дат из раскрывающегося списка и нажав кнопку "Ввод!".


*Определитесь, кто Вы:
робот инопланетянин человек

Внимание! Время в таблицах - всемирное. Для получения местного времени необходимо прибавить поправку, которая равна -4 ч.

Смотрите также архив погоды в соседних городах и на ближайших метеорологических станциях:

Погода в Санто-Доминго (Доминиканская Республика) (23 км)
Погода в Сабана де ла Мар (Доминиканская Республика) (75 км)
Погода в Ла Романа аэропорту (Доминиканская Республика) (78 км)
Погода в Пунта-Кане (Доминиканская Республика) (138 км)
Погода в Бараоне (Доминиканская Республика) (154 км)
Погода в Сантьяго (Доминиканская Республика) (158 км)
Погода в Пуэрто-Плате (Доминиканская Республика) (174 км)
Погода в Шарлотта-Амалии (Виргинские Острова) (496 км)
Погода в Пунта-де-Маиси (Куба) (513 км)
Погода Королевы Беатрикс аэропорту (Аруба) (661 км)

Пояснения к столбцам:

Ветер - указаны скорость ветра в м/с - средняя за 10 мин, порывы в срок и между сроками (в фигурных скобках) и направление, откуда дует ветер: С - северный, СВ - северо-восточный, В - восточный, ЮВ - юго-восточный, Ю - южный, ЮЗ - юго-западный, З - западный, СЗ - северо-западный.
Видимость - горизонтальная дальность видимости в метрах или километрах. При видимости от 1 до 10 км при отсутствии осадков обычно наблюдается дымка, при ухудшении видимости до 1 км и менее - туман. В сухую погоду видимость может ухудшаться дымом, пылью или мглою.
Явления - указаны атмосферные явления, наблюдавшиеся в срок или в последний час перед сроком; фигурными скобками обозначены явления, наблюдавшиеся между сроками (за 1-3 часа до срока); квадратными скобками обозначены град или гололедные отложения с указанием их диаметра в мм.
Облачность - указаны через наклонную черту общая и нижняя облачность в баллах и высота нижней границы облаков в метрах; квадратными скобками обозначены формы облаков: Ci - перистые, Cs - перисто-слоистые, Cc - перисто-кучевые, Ac - высококучевые, As - высокослоистые, Sc - слоисто-кучевые, Ns - слоисто-дождевые, Cu - кучевые, Cb - кучево-дождевые. Подробнее классификацию облаков см. в Атласе облаков (PDF).
T - Температура воздуха - температура, измеренная на высоте 2 м над землей.
Td - Температура точки росы - температура, при понижении до которой содержащийся в воздухе водяной пар достигнет насыщения.
f - Относительная влажность воздуха - влажноcть воздуха, измеренная на высоте 2 м над землей.
Te - Эффективная температура - температура, которую ощущает одетый по сезону человек в тени. Характеристика душности погоды. При расчете учитывается влияние влажности воздуха и скорости ветра на теплоощущения человека.
Tes - Эффективная температура на солнце - температура, которую ощущает человек, с поправкой на солнечный нагрев. Характеристика знойности погоды. Зависит от высоты солнца над горизонтом, облачности и скорости ветра. Ночью, в пасмурную погоду, а также при ветре 12 м/с и более поправка равна нулю.
P - Атмосферное давление - приведенное к уровню моря атмосферное давление.
Po - Атмосферное давление - измеренное на уровне метеостанции атмосферное давление.
Tmin - Минимальная температура - минимум температуры воздуха на высоте 2 м над землей.
Tmax - Максимальная температура - максимум температуры воздуха на высоте 2 м над землей.
R - Количество осадков - Количество выпавших осадков за период времени, мм. При наведении курсора мыши на число - период времени, за который выпало указанное количество осадков.
R24 - Количество осадков - Количество выпавших осадков за 24 часа, мм.
S - Снежный покров - Высота снежного покрова, см. При наведении курсора мыши на число - состояние снежного покрова и степень покрытия местности в баллах.